• In Czech Republic
  • List of Countries
  • For 7 days
  • Water Temperature
  • Satellite Maps
  • Weather Map
  • Weather Widgets
  • user-avatar
    Login

    Hourly Weather Saidpur

    Today, 26 September, Tuesday

    Time Temperature Precipitation Wind Pressure Humidity
    00:00 +31°C° 0 mm 1 mps 750 mmHg 74%
    01:00 +31°C° 0.8 mm 1 mps 750 mmHg 75%
    02:00 +30°C° 0.8 mm 1 mps 750 mmHg 77%
    03:00 +30°C° 0.8 mm 1 mps 750 mmHg 78%
    04:00 +30°C° 0.5 mm 1 mps 750 mmHg 79%
    05:00 +30°C° 0.5 mm 1 mps 750 mmHg 80%
    06:00 +28°C° 0 mm 0 mps 751 mmHg 81%
    07:00 +31°C° 0 mm 1 mps 751 mmHg 76%
    08:00 +32°C° 0 mm 1 mps 751 mmHg 71%
    09:00 +34°C° 0 mm 1 mps 751 mmHg 67%
    10:00 +35°C° 0 mm 1 mps 751 mmHg 62%
    11:00 +36°C° 0 mm 1 mps 751 mmHg 57%
    12:00 +37°C° 0 mm 1 mps 751 mmHg 51%
    13:00 +37°C° 0 mm 1 mps 750 mmHg 50%
    14:00 +37°C° 0 mm 1 mps 750 mmHg 49%
    15:00 +39°C° 0 mm 1 mps 749 mmHg 48%
    16:00 +36°C° 0 mm 1 mps 749 mmHg 52%
    17:00 +35°C° 0 mm 1 mps 749 mmHg 55%
    18:00 +34°C° 0 mm 1 mps 749 mmHg 59%
    19:00 +34°C° 0 mm 1 mps 749 mmHg 60%
    20:00 +33°C° 0 mm 1 mps 750 mmHg 61%
    21:00 +33°C° 0 mm 1 mps 751 mmHg 62%
    22:00 +33°C° 0 mm 1 mps 751 mmHg 63%
    23:00 +32°C° 0 mm 1 mps 751 mmHg 64%

    Tomorrow, 27 September, Wednesday

    Time Temperature Precipitation Wind Pressure Humidity
    00:00 +30°C° 0 mm 0 mps 751 mmHg 65%
    01:00 +30°C° 0 mm 0 mps 751 mmHg 67%
    02:00 +29°C° 0 mm 0 mps 750 mmHg 68%
    03:00 +29°C° 0 mm 0 mps 750 mmHg 70%
    04:00 +31°C° 0 mm 1 mps 750 mmHg 71%
    05:00 +30°C° 0 mm 1 mps 750 mmHg 72%
    06:00 +30°C° 0 mm 1 mps 750 mmHg 74%
    07:00 +31°C° 0 mm 1 mps 751 mmHg 70%
    08:00 +33°C° 0 mm 1 mps 751 mmHg 66%
    09:00 +34°C° 0 mm 1 mps 752 mmHg 62%
    10:00 +35°C° 0 mm 1 mps 752 mmHg 58%
    11:00 +37°C° 0 mm 1 mps 751 mmHg 53%
    12:00 +39°C° 0 mm 1 mps 751 mmHg 49%
    13:00 +39°C° 0 mm 1 mps 750 mmHg 48%
    14:00 +39°C° 0 mm 1 mps 750 mmHg 47%
    15:00 +39°C° 0 mm 1 mps 749 mmHg 45%
    16:00 +37°C° 0 mm 1 mps 749 mmHg 49%
    17:00 +36°C° 0 mm 1 mps 749 mmHg 53%
    18:00 +35°C° 0 mm 1 mps 749 mmHg 57%
    19:00 +34°C° 0 mm 1 mps 750 mmHg 58%
    20:00 +34°C° 0 mm 1 mps 750 mmHg 60%
    21:00 +33°C° 0 mm 1 mps 751 mmHg 62%
    22:00 +33°C° 0 mm 1 mps 751 mmHg 64%
    23:00 +32°C° 0 mm 1 mps 751 mmHg 66%

    Day after tomorrow, 28 September, Thursday

    Time Temperature Precipitation Wind Pressure Humidity
    00:00 +32°C° 0 mm 1 mps 751 mmHg 68%
    01:00 +32°C° 0.1 mm 1 mps 750 mmHg 70%
    02:00 +31°C° 0.1 mm 1 mps 750 mmHg 73%
    03:00 +31°C° 0.1 mm 1 mps 749 mmHg 75%
    04:00 +31°C° 0.1 mm 1 mps 750 mmHg 76%
    05:00 +30°C° 0.1 mm 1 mps 750 mmHg 76%
    06:00 +30°C° 0.1 mm 1 mps 750 mmHg 77%
    07:00 +31°C° 0.2 mm 1 mps 750 mmHg 74%
    08:00 +32°C° 0.2 mm 1 mps 751 mmHg 71%
    09:00 +33°C° 0.2 mm 1 mps 752 mmHg 68%
    10:00 +34°C° 1.1 mm 1 mps 751 mmHg 64%
    11:00 +36°C° 1.1 mm 2 mps 751 mmHg 60%
    12:00 +37°C° 1.1 mm 2 mps 751 mmHg 56%
    13:00 +37°C° 0.4 mm 2 mps 750 mmHg 56%
    14:00 +36°C° 0.4 mm 1 mps 749 mmHg 55%
    15:00 +36°C° 0.4 mm 1 mps 749 mmHg 55%
    16:00 +35°C° 0 mm 1 mps 749 mmHg 59%
    17:00 +34°C° 0 mm 1 mps 749 mmHg 62%
    18:00 +33°C° 0 mm 1 mps 749 mmHg 66%
    19:00 +34°C° 0 mm 2 mps 749 mmHg 68%
    20:00 +32°C° 0 mm 2 mps 750 mmHg 71%
    21:00 +31°C° 0 mm 2 mps 751 mmHg 73%
    22:00 +31°C° 0.1 mm 2 mps 750 mmHg 75%
    23:00 +31°C° 0.1 mm 1 mps 750 mmHg 77%

    29 September, Friday

    Time Temperature Precipitation Wind Pressure Humidity
    00:00 +30°C° 0.1 mm 1 mps 750 mmHg 79%
    01:00 +30°C° 0.1 mm 1 mps 750 mmHg 80%
    02:00 +30°C° 0.1 mm 1 mps 750 mmHg 81%
    03:00 +29°C° 0.1 mm 1 mps 749 mmHg 81%
    04:00 +29°C° 0 mm 1 mps 749 mmHg 82%
    05:00 +29°C° 0 mm 1 mps 750 mmHg 82%
    06:00 +29°C° 0 mm 2 mps 750 mmHg 82%
    07:00 +30°C° 0 mm 3 mps 750 mmHg 81%
    08:00 +30°C° 0 mm 3 mps 751 mmHg 79%
    09:00 +32°C° 0 mm 4 mps 752 mmHg 78%
    10:00 +32°C° 0.4 mm 5 mps 752 mmHg 75%
    11:00 +33°C° 0.4 mm 5 mps 751 mmHg 73%
    12:00 +33°C° 0.4 mm 5 mps 751 mmHg 71%
    13:00 +33°C° 0.4 mm 5 mps 750 mmHg 71%
    14:00 +33°C° 0.4 mm 5 mps 749 mmHg 71%
    15:00 +33°C° 0.4 mm 6 mps 749 mmHg 71%
    16:00 +32°C° 0.1 mm 5 mps 749 mmHg 74%
    17:00 +30°C° 0.1 mm 4 mps 749 mmHg 77%
    18:00 +29°C° 0.1 mm 3 mps 749 mmHg 80%
    19:00 +29°C° 0.1 mm 3 mps 750 mmHg 81%
    20:00 +29°C° 0.1 mm 3 mps 751 mmHg 81%
    21:00 +28°C° 0.1 mm 3 mps 751 mmHg 82%
    22:00 +28°C° 1.1 mm 3 mps 751 mmHg 84%
    23:00 +28°C° 1.1 mm 3 mps 751 mmHg 87%

    30 September, Saturday

    Time Temperature Precipitation Wind Pressure Humidity
    00:00 +28°C° 1.1 mm 3 mps 751 mmHg 89%
    01:00 +27°C° 1.2 mm 3 mps 751 mmHg 90%
    02:00 +27°C° 1.2 mm 3 mps 750 mmHg 91%
    03:00 +27°C° 1.2 mm 4 mps 750 mmHg 91%
    04:00 +26°C° 0.5 mm 4 mps 751 mmHg 91%
    05:00 +26°C° 0.5 mm 4 mps 751 mmHg 92%
    06:00 +26°C° 0.5 mm 4 mps 751 mmHg 92%
    07:00 +27°C° 0.5 mm 4 mps 752 mmHg 89%
    08:00 +28°C° 0.5 mm 4 mps 752 mmHg 87%
    09:00 +28°C° 0.5 mm 5 mps 753 mmHg 85%
    10:00 +29°C° 0.6 mm 5 mps 753 mmHg 84%
    11:00 +29°C° 0.6 mm 5 mps 752 mmHg 83%
    12:00 +29°C° 0.6 mm 6 mps 752 mmHg 82%
    13:00 +29°C° 0.5 mm 6 mps 751 mmHg 84%
    14:00 +29°C° 0.5 mm 6 mps 751 mmHg 85%
    15:00 +28°C° 0.5 mm 6 mps 750 mmHg 86%
    16:00 +28°C° 0.2 mm 6 mps 750 mmHg 88%
    17:00 +27°C° 0.2 mm 6 mps 751 mmHg 89%
    18:00 +27°C° 0.2 mm 5 mps 751 mmHg 90%
    19:00 +27°C° 0.2 mm 5 mps 752 mmHg 91%
    20:00 +27°C° 0.2 mm 5 mps 752 mmHg 91%
    21:00 +26°C° 0.2 mm 4 mps 753 mmHg 92%
    22:00 +26°C° 0.2 mm 4 mps 752 mmHg 92%
    23:00 +26°C° 0.2 mm 4 mps 752 mmHg 93%

    1 October, Sunday

    Time Temperature Precipitation Wind Pressure Humidity
    00:00 +26°C° 0.2 mm 4 mps 752 mmHg 93%
    01:00 +26°C° 0.3 mm 4 mps 751 mmHg 93%
    02:00 +26°C° 0.3 mm 4 mps 751 mmHg 94%
    03:00 +26°C° 0.3 mm 3 mps 751 mmHg 94%
    04:00 +26°C° 0.3 mm 3 mps 751 mmHg 94%
    05:00 +26°C° 0.3 mm 4 mps 751 mmHg 94%
    06:00 +26°C° 0.3 mm 4 mps 751 mmHg 94%
    07:00 +26°C° 0.1 mm 4 mps 752 mmHg 93%
    08:00 +27°C° 0.1 mm 4 mps 752 mmHg 91%
    09:00 +27°C° 0.1 mm 4 mps 753 mmHg 90%
    10:00 +28°C° 0.2 mm 4 mps 753 mmHg 89%
    11:00 +28°C° 0.2 mm 4 mps 752 mmHg 88%
    12:00 +28°C° 0.2 mm 4 mps 752 mmHg 87%
    13:00 +28°C° 0.4 mm 5 mps 752 mmHg 87%
    14:00 +28°C° 0.4 mm 5 mps 751 mmHg 86%
    15:00 +29°C° 0.4 mm 5 mps 750 mmHg 85%
    16:00 +28°C° 0.6 mm 5 mps 751 mmHg 87%
    17:00 +28°C° 0.6 mm 5 mps 751 mmHg 88%
    18:00 +27°C° 0.6 mm 5 mps 751 mmHg 89%
    19:00 +27°C° 1 mm 5 mps 752 mmHg 91%
    20:00 +27°C° 1 mm 5 mps 752 mmHg 92%
    21:00 +26°C° 1 mm 5 mps 753 mmHg 93%
    22:00 +26°C° 2.1 mm 4 mps 752 mmHg 94%
    23:00 +26°C° 2.1 mm 4 mps 752 mmHg 95%
    Show more